Montross, Virginia, United States (22520)
Lat: 38.09N, Lon: 76.83W
Wx Zone: VAZ075
Local Info
Past Weather Observations for Monday, May 23, 2016

NOTE: This archive is for the closest National Weather Service station to Montross. Information may differ from the station used for current weather conditions.

Click here for Long-term Archive

Time Weather Temperature Dewpoint Humidity Pressure Winds Precip Visibility
23:52
Mostly Cloudy
59°F / 15°C 55°F / 13°C 88% 29.95 in
(1014 mb)
W 4.6 mph
(W 7 kph)
- 10SM
22:52
Partly Cloudy
59°F / 15°C 55°F / 13°C 88% 29.95 in
(1014 mb)
WNW 8.1 mph
(WNW 13 kph)
- 10SM
21:52
Mostly Cloudy
59°F / 15°C 55°F / 13°C 88% 29.95 in
(1014 mb)
SSW 5.8 mph
(SSW 9 kph)
- 10SM
20:52
Mostly Cloudy
57°F / 14°C 55°F / 13°C 94% 29.95 in
(1014 mb)
SSW 5.8 mph
(SSW 9 kph)
- 10SM
19:52
Mostly Cloudy
61°F / 16°C 54°F / 12°C 77% 29.95 in
(1014 mb)
NW 5.8 mph
(NW 9 kph)
- 10SM
18:52
Overcast
61°F / 16°C 54°F / 12°C 77% 29.92 in
(1013 mb)
NW 10.4 mph
(NW 17 kph)
0.01 in
(0.25 mm)
7SM
17:52
Mostly Cloudy
64°F / 18°C 59°F / 15°C 83% 29.92 in
(1013 mb)
NW 8.1 mph
(NW 13 kph)
0.00 in
(0.00 mm)
10SM
16:52
Overcast
Light Rain
64°F / 18°C 57°F / 14°C 78% 29.89 in
(1012 mb)
ENE 8.1 mph
(ENE 13 kph)
0.00 in
(0.00 mm)
9SM
15:52
Mostly Cloudy
70°F / 21°C 54°F / 12°C 57% 29.89 in
(1012 mb)
Calm - 10SM
14:52
Mostly Cloudy
68°F / 20°C 55°F / 13°C 64% 29.92 in
(1013 mb)
Calm - 10SM
13:52
Mostly Cloudy
66°F / 19°C 55°F / 13°C 68% 29.92 in
(1013 mb)
Calm - 10SM
12:52
Mostly Cloudy
64°F / 18°C 55°F / 13°C 73% 29.95 in
(1014 mb)
NNW 9.2 mph
(NNW 15 kph)
- 10SM
11:52
Overcast
64°F / 18°C 55°F / 13°C 73% 29.95 in
(1014 mb)
NW 9.2 mph
(NW 15 kph)
0.00 in
(0.00 mm)
10SM
10:52
Overcast
Light Rain
63°F / 17°C 55°F / 13°C 77% 29.95 in
(1014 mb)
NW 8.1 mph
(NW 13 kph)
0.00 in
(0.00 mm)
10SM
10:29
Overcast
Light Rain
63°F / 17°C 57°F / 14°C 83% 29.95 in
(1014 mb)
NNW 9.2 mph
(NNW 15 kph)
0.00 in
(0.00 mm)
10SM
09:52
Overcast
61°F / 16°C 55°F / 13°C 83% 29.95 in
(1014 mb)
NNW 10.4 mph
(NNW 17 kph)
0.01 in
(0.25 mm)
10SM
09:46
Overcast
61°F / 16°C 55°F / 13°C 83% 29.95 in
(1014 mb)
NW 11.5 mph
(NW 19 kph)
0.01 in
(0.25 mm)
10SM
08:52
Mostly Cloudy
Light Rain
57°F / 14°C 54°F / 12°C 88% 29.95 in
(1014 mb)
NNW 15 mph
(NNW 24 kph)
0.01 in
(0.25 mm)
10SM
07:52
Overcast
Light Rain
59°F / 15°C 55°F / 13°C 88% 29.95 in
(1014 mb)
N 11.5 mph
(N 19 kph)
0.00 in
(0.00 mm)
8SM
06:52
Overcast
Light Rain
57°F / 14°C 55°F / 13°C 94% 29.92 in
(1013 mb)
NNW 8.1 mph
(NNW 13 kph)
0.01 in
(0.25 mm)
8SM
05:52
Overcast
Light Rain
57°F / 14°C 55°F / 13°C 94% 29.92 in
(1013 mb)
N 5.8 mph
(N 9 kph)
0.03 in
(0.76 mm)
7SM
04:52
Overcast
Light Rain
57°F / 14°C 54°F / 12°C 88% 29.89 in
(1012 mb)
NNE 10.4 mph
(NNE 17 kph)
0.01 in
(0.25 mm)
6SM
03:52
Overcast
57°F / 14°C 54°F / 12°C 88% 29.89 in
(1012 mb)
NE 11.5 mph
(NE 19 kph)
- 10SM
02:52
Overcast
Fog And Mist
57°F / 14°C 54°F / 12°C 88% 29.89 in
(1012 mb)
NE 11.5 mph
(NE 19 kph)
- 4SM
02:43
Overcast
Fog And Mist
57°F / 14°C 54°F / 12°C 88% 29.89 in
(1012 mb)
NE 17.3 mph
(NE 28 kph)
- 4SM
02:36
Overcast
Fog And Mist
57°F / 14°C 54°F / 12°C 88% 29.89 in
(1012 mb)
NE 11.5 mph
(NE 19 kph)
- 4SM
02:25
Overcast
Fog And Mist
55°F / 13°C 54°F / 12°C 94% 29.89 in
(1012 mb)
NE 11.5 mph
(NE 19 kph)
- 5SM
02:01
Overcast
Fog And Mist
57°F / 14°C 54°F / 12°C 88% 29.86 in
(1011 mb)
NE 13.8 mph
(NE 22 kph)
- 6SM
01:52
Overcast
57°F / 14°C 54°F / 12°C 88% 29.86 in
(1011 mb)
NE 13.8 mph
(NE 22 kph)
- 9SM
00:54
Overcast
57°F / 14°C 54°F / 12°C 88% 29.89 in
(1012 mb)
NE 10.4 mph
(NE 17 kph)
- 10SM
Time Weather Temperature Dewpoint Humidity Pressure Winds Precip Visibility


Weather for websites

WeatherForYou.com, LLC is not responsible for any damages or problems caused by this service. Current weather conditions are obtained from the closest station including government and personal stations which may have varying degrees of accuracy. Weather forecasts are derived from the NOAA NDFD. Like all things, this site belongs to Jesus Christ... He just trusts us to maintain it. If you have any questions or comments email webmaster@weatherforyou.com

Copyright © 2016, WeatherForYou.com LLC. All rights reserved.